This is the latest recevied weather packets stored in our database for station/object KC3QJO. If no packets are shown the sender has not sent any weather packets the latest 10 day(s).
| Time | Temp. | Humidity | Pressure | Rain* | Wind** | Luminosity | Snow |
|---|---|---|---|---|---|---|---|
| 1777759851 | 12.78° C | 36% | 1009.8 hPa | 0 mm | - | 98 W/m² | - |
| 1777756250 | 13.89° C | 34% | 1009.4 hPa | 0 mm | - | 181 W/m² | - |
| 1777755950 | 13.89° C | 34% | 1009.2 hPa | 0 mm | - | 193 W/m² | - |
| 1777755651 | 13.89° C | 33% | 1009.3 hPa | 0 mm | - | 225 W/m² | - |
| 1777755050 | 14.44° C | 32% | 1009.3 hPa | 0 mm | - | 350 W/m² | - |
| 1777752953 | 15° C | 35% | 1009.6 hPa | 0 mm | - | 230 W/m² | - |
| 1777752652 | 14.44° C | 35% | 1009.5 hPa | 0 mm | - | 281 W/m² | - |
| 1777751150 | 14.44° C | 36% | 1009.8 hPa | 0 mm | - | 898 W/m² | - |
| 1777750855 | 13.89° C | 36% | 1009.9 hPa | 0 mm | - | 369 W/m² | - |
| 1777750254 | 14.44° C | 36% | 1010 hPa | 0 mm | - | 868 W/m² | - |
| 1777749052 | 14.44° C | 35% | 1010.4 hPa | 0 mm | - | 471 W/m² | - |
| 1777747852 | 13.89° C | 36% | 1010.6 hPa | 0 mm | - | 322 W/m² | - |
| 1777744557 | 13.33° C | 36% | 1010.8 hPa | 0 mm | - | 290 W/m² | - |
| 1777743652 | 14.44° C | 35% | 1010.8 hPa | 0 mm | - | 610 W/m² | - |
| 1777743352 | 13.89° C | 37% | 1010.6 hPa | 0 mm | - | 937 W/m² | - |
| 1777741852 | 15° C | 34% | 1010.8 hPa | 0 mm | - | 271 W/m² | - |
| 1777741551 | 15° C | 44% | 1010.9 hPa | 0 mm | - | 1020 W/m² | - |
| 1777739460 | 12.78° C | 44% | 1011.5 hPa | 0 mm | - | 248 W/m² | - |
| 1777738251 | 12.78° C | 44% | 1011.4 hPa | 0 mm | - | 538 W/m² | - |
| 1777735857 | 12.22° C | 49% | 1011.7 hPa | 0 mm | - | 236 W/m² | - |
| 1777734953 | 11.67° C | 52% | 1011.7 hPa | 0 mm | - | 726 W/m² | - |
| 1777733451 | 11.11° C | 55% | 1011.7 hPa | 0 mm | - | 316 W/m² | - |
| 1777731652 | 10° C | 58% | 1011.9 hPa | 0 mm | - | 160 W/m² | - |
| 1777731050 | 10° C | 57% | 1012 hPa | 0 mm | - | 174 W/m² | - |
| 1777730455 | 9.44° C | 60% | 1011.9 hPa | 0 mm | - | 364 W/m² | - |
* Rain latest hour (hover to see other rain measurements)
** Current wind speed in m/s (hover to see current wind gust speed)